When you browse on this site, cookies collect data to enhance your experience and personalize the content and advertising you see.
Visit our Privacy Policy to learn more. By continuing to use the site, you agree to this use of cookies and data.
  • în România
  • Lista ţărilor
  • Pe 7 zile
  • Temperatura apei
  • Hartă satelitară
  • Meteo pe hartă
  • Widget-uri
  • user-avatar
    Intrare

    Meteo pe oră la Simonovo

    Astăzi, 26 Aprilie, Vineri

    Timp Temperatura Precipitaţii Vânt Presiune Umiditate
    00:00 +13°C° 0 mm 1 m/s 753 mmHg 57%
    01:00 +13°C° 0 mm 1 m/s 753 mmHg 57%
    02:00 +13°C° 0 mm 1 m/s 753 mmHg 58%
    03:00 +13°C° 0 mm 1 m/s 753 mmHg 60%
    04:00 +12°C° 0 mm 1 m/s 753 mmHg 62%
    05:00 +12°C° 0 mm 1 m/s 753 mmHg 64%
    06:00 +14°C° 0 mm 1 m/s 753 mmHg 60%
    07:00 +15°C° 0 mm 1 m/s 753 mmHg 56%
    08:00 +18°C° 0 mm 1 m/s 753 mmHg 52%
    09:00 +19°C° 0 mm 1 m/s 753 mmHg 47%
    10:00 +21°C° 0 mm 1 m/s 753 mmHg 43%
    11:00 +23°C° 0 mm 1 m/s 753 mmHg 39%
    12:00 +23°C° 0 mm 1 m/s 752 mmHg 36%
    13:00 +24°C° 0 mm 1 m/s 752 mmHg 34%
    14:00 +24°C° 0 mm 1 m/s 752 mmHg 31%
    15:00 +23°C° 0 mm 1 m/s 751 mmHg 36%
    16:00 +22°C° 0 mm 1 m/s 751 mmHg 40%
    17:00 +21°C° 0 mm 1 m/s 751 mmHg 44%
    18:00 +20°C° 0 mm 1 m/s 750 mmHg 48%
    19:00 +18°C° 0 mm 1 m/s 750 mmHg 52%
    20:00 +16°C° 0 mm 2 m/s 750 mmHg 56%
    21:00 +15°C° 0.3 mm 2 m/s 750 mmHg 60%
    22:00 +14°C° 0.3 mm 2 m/s 750 mmHg 64%
    23:00 +14°C° 0.3 mm 2 m/s 749 mmHg 68%

    Mâine, 27 Aprilie, Sâmbătă

    Timp Temperatura Precipitaţii Vânt Presiune Umiditate
    00:00 +13°C° 0 mm 2 m/s 749 mmHg 71%
    01:00 +12°C° 0 mm 2 m/s 749 mmHg 74%
    02:00 +12°C° 0 mm 2 m/s 749 mmHg 76%
    03:00 +12°C° 0 mm 2 m/s 748 mmHg 76%
    04:00 +12°C° 0 mm 2 m/s 748 mmHg 75%
    05:00 +12°C° 0 mm 1 m/s 747 mmHg 74%
    06:00 +14°C° 0 mm 2 m/s 747 mmHg 68%
    07:00 +16°C° 0 mm 2 m/s 747 mmHg 61%
    08:00 +18°C° 0 mm 2 m/s 747 mmHg 55%
    09:00 +19°C° 0 mm 3 m/s 746 mmHg 49%
    10:00 +20°C° 0 mm 3 m/s 746 mmHg 44%
    11:00 +22°C° 0 mm 4 m/s 745 mmHg 38%
    12:00 +21°C° 0 mm 3 m/s 745 mmHg 40%
    13:00 +21°C° 0 mm 3 m/s 744 mmHg 42%
    14:00 +21°C° 0 mm 2 m/s 744 mmHg 44%
    15:00 +21°C° 0 mm 2 m/s 744 mmHg 46%
    16:00 +21°C° 0 mm 1 m/s 743 mmHg 48%
    17:00 +21°C° 0 mm 1 m/s 743 mmHg 50%
    18:00 +18°C° 0.3 mm 2 m/s 743 mmHg 60%
    19:00 +16°C° 0.3 mm 3 m/s 743 mmHg 69%
    20:00 +13°C° 0.3 mm 3 m/s 743 mmHg 79%
    21:00 +12°C° 0.4 mm 4 m/s 743 mmHg 81%
    22:00 +11°C° 0.4 mm 4 m/s 744 mmHg 83%
    23:00 +10°C° 0.4 mm 4 m/s 744 mmHg 86%

    Poimâine, 28 Aprilie, Duminică

    Timp Temperatura Precipitaţii Vânt Presiune Umiditate
    00:00 +8°C° 0 mm 4 m/s 745 mmHg 86%
    01:00 +7°C° 0 mm 5 m/s 745 mmHg 85%
    02:00 +6°C° 0 mm 5 m/s 746 mmHg 85%
    03:00 +5°C° 0 mm 5 m/s 746 mmHg 82%
    04:00 +2°C° 0 mm 5 m/s 747 mmHg 78%
    05:00 +1°C° 0 mm 6 m/s 748 mmHg 75%
    06:00 +1°C° 0 mm 6 m/s 748 mmHg 69%
    07:00 +2°C° 0 mm 6 m/s 749 mmHg 63%
    08:00 +2°C° 0 mm 6 m/s 750 mmHg 57%
    09:00 +3°C° 0 mm 6 m/s 750 mmHg 50%
    10:00 +4°C° 0 mm 6 m/s 751 mmHg 44%
    11:00 +5°C° 0 mm 6 m/s 751 mmHg 37%
    12:00 +5°C° 0 mm 6 m/s 751 mmHg 36%
    13:00 +7°C° 0 mm 5 m/s 751 mmHg 35%
    14:00 +7°C° 0 mm 5 m/s 751 mmHg 34%
    15:00 +7°C° 0 mm 5 m/s 752 mmHg 35%
    16:00 +7°C° 0 mm 5 m/s 752 mmHg 37%
    17:00 +6°C° 0 mm 5 m/s 752 mmHg 38%
    18:00 +5°C° 0 mm 4 m/s 753 mmHg 43%
    19:00 +4°C° 0 mm 3 m/s 753 mmHg 48%
    20:00 +3°C° 0 mm 2 m/s 754 mmHg 52%
    21:00 +3°C° 0 mm 2 m/s 754 mmHg 54%
    22:00 +2°C° 0 mm 2 m/s 754 mmHg 55%
    23:00 +1°C° 0 mm 2 m/s 755 mmHg 57%

    29 Aprilie, Luni

    Timp Temperatura Precipitaţii Vânt Presiune Umiditate
    00:00 +1°C° 0 mm 2 m/s 755 mmHg 59%
    01:00 -1°C° 0 mm 2 m/s 755 mmHg 62%
    02:00 -1°C° 0 mm 2 m/s 756 mmHg 65%
    03:00 -1°C° 0 mm 2 m/s 756 mmHg 65%
    04:00 -2°C° 0 mm 2 m/s 756 mmHg 65%
    05:00 -2°C° 0 mm 2 m/s 756 mmHg 65%
    06:00 +1°C° 0 mm 2 m/s 756 mmHg 56%
    07:00 +2°C° 0 mm 3 m/s 757 mmHg 47%
    08:00 +3°C° 0 mm 3 m/s 757 mmHg 38%
    09:00 +4°C° 0 mm 3 m/s 757 mmHg 36%
    10:00 +5°C° 0 mm 3 m/s 756 mmHg 33%
    11:00 +7°C° 0 mm 3 m/s 756 mmHg 31%
    12:00 +8°C° 0 mm 2 m/s 756 mmHg 30%
    13:00 +9°C° 0 mm 2 m/s 755 mmHg 29%
    14:00 +9°C° 0 mm 2 m/s 755 mmHg 28%
    15:00 +9°C° 0 mm 2 m/s 755 mmHg 29%
    16:00 +9°C° 0 mm 2 m/s 754 mmHg 30%
    17:00 +8°C° 0 mm 2 m/s 754 mmHg 31%
    18:00 +7°C° 0 mm 2 m/s 754 mmHg 37%
    19:00 +5°C° 0 mm 2 m/s 754 mmHg 43%
    20:00 +4°C° 0 mm 1 m/s 754 mmHg 49%
    21:00 +4°C° 0 mm 1 m/s 754 mmHg 50%
    22:00 +3°C° 0 mm 1 m/s 754 mmHg 52%
    23:00 +2°C° 0 mm 1 m/s 754 mmHg 54%

    30 Aprilie, Marţi

    Timp Temperatura Precipitaţii Vânt Presiune Umiditate
    00:00 +2°C° 0 mm 1 m/s 754 mmHg 55%
    01:00 +2°C° 0 mm 1 m/s 753 mmHg 55%
    02:00 +2°C° 0 mm 1 m/s 753 mmHg 56%
    03:00 +2°C° 0 mm 1 m/s 753 mmHg 55%
    04:00 +2°C° 0 mm 1 m/s 753 mmHg 55%
    05:00 +3°C° 0 mm 1 m/s 753 mmHg 55%
    06:00 +5°C° 0 mm 1 m/s 753 mmHg 49%
    07:00 +7°C° 0 mm 1 m/s 752 mmHg 44%
    08:00 +9°C° 0 mm 1 m/s 752 mmHg 38%
    09:00 +10°C° 0 mm 1 m/s 752 mmHg 35%
    10:00 +11°C° 0 mm 1 m/s 752 mmHg 33%
    11:00 +13°C° 0 mm 1 m/s 751 mmHg 30%
    12:00 +13°C° 0 mm 1 m/s 751 mmHg 30%
    13:00 +13°C° 0 mm 1 m/s 751 mmHg 30%
    14:00 +13°C° 0 mm 1 m/s 750 mmHg 30%
    15:00 +13°C° 0 mm 1 m/s 750 mmHg 31%
    16:00 +11°C° 0 mm 0 m/s 750 mmHg 32%
    17:00 +11°C° 0 mm 0 m/s 749 mmHg 33%
    18:00 +9°C° 0 mm 0 m/s 749 mmHg 37%
    19:00 +8°C° 0 mm 0 m/s 749 mmHg 41%
    20:00 +8°C° 0 mm 1 m/s 749 mmHg 45%
    21:00 +7°C° 0 mm 1 m/s 749 mmHg 48%
    22:00 +6°C° 0 mm 1 m/s 749 mmHg 50%
    23:00 +5°C° 0 mm 1 m/s 749 mmHg 53%

    1 Mai, Miercuri

    Timp Temperatura Precipitaţii Vânt Presiune Umiditate
    00:00 +5°C° 0 mm 1 m/s 749 mmHg 54%
    01:00 +4°C° 0 mm 1 m/s 749 mmHg 56%
    02:00 +4°C° 0 mm 1 m/s 748 mmHg 57%
    03:00 +4°C° 0 mm 1 m/s 748 mmHg 57%
    04:00 +4°C° 0 mm 1 m/s 748 mmHg 58%
    05:00 +4°C° 0 mm 1 m/s 748 mmHg 58%
    06:00 +6°C° 0 mm 1 m/s 748 mmHg 52%
    07:00 +7°C° 0 mm 2 m/s 748 mmHg 46%
    08:00 +9°C° 0 mm 2 m/s 747 mmHg 40%
    09:00 +10°C° 0 mm 2 m/s 747 mmHg 37%
    10:00 +12°C° 0 mm 2 m/s 747 mmHg 34%
    11:00 +12°C° 0 mm 3 m/s 746 mmHg 31%
    12:00 +13°C° 0 mm 3 m/s 746 mmHg 31%
    13:00 +13°C° 0 mm 3 m/s 745 mmHg 31%
    14:00 +13°C° 0 mm 3 m/s 744 mmHg 31%
    15:00 +13°C° 0 mm 3 m/s 744 mmHg 34%
    16:00 +13°C° 0 mm 3 m/s 743 mmHg 36%
    17:00 +12°C° 0 mm 4 m/s 743 mmHg 39%
    18:00 +11°C° 0 mm 3 m/s 743 mmHg 45%
    19:00 +9°C° 0 mm 3 m/s 742 mmHg 51%
    20:00 +7°C° 0 mm 3 m/s 742 mmHg 58%
    21:00 +7°C° 0 mm 3 m/s 742 mmHg 59%
    22:00 +5°C° 0 mm 3 m/s 741 mmHg 60%
    23:00 +5°C° 0 mm 3 m/s 741 mmHg 62%
    Arată mai mult